sat.trackr.live / text

‹ back to catalog

STARLINK-2538

NORAD 48300 · 2021-036AA

PAYLOAD ACTIVE UNKNOWN

§ Identity

Operator
Country
US
Launch date
2021-04-29
Launch site
AFETR
Launch vehicle
Mass (kg)
RCS (m²)

Purposes: comms

External: N2YO · Heavens-Above · Gunter

§ Orbital elements

Epoch: 2026-09-19T17:35:00.219552Z

Period
94.01 min
Inclination
53.1609°
Eccentricity
0.0000930
Mean motion
15.31708504 rev/d
Perigee alt
470.1 km
Apogee alt
471.4 km
Semi-major
6,848.9 km
B*
-9.0151e-5
RAAN
265.1225°
Arg perigee
72.7122°
Mean anomaly
287.3981°
Rev number
29,796

§ Raw data

STARLINK-25381 48300U 21036AA  26262.73264143 -.00003162  00000+0 -90151-4 0  99982 48300  53.1609 265.1225 0000930  72.7122 287.3981 15.31708504297962

JSON: /api/v1/satellites/48300 · /tle

For live sub-satellite position, see the globe view (requires WebGL).

§ Visibility from observer

Set your observer location to see the next 7 days of passes ≥ 10°. The values pass through the URL so the page stays shareable.

No JS? Fill the form by hand. The geolocation button needs JavaScript.